Time,TemperatureF,DewpointF,PressureIn,WindDirection,WindDirectionDegrees,WindSpeedMPH,WindSpeedGustMPH,Humidity,HourlyPrecipIn,Conditions,Clouds,dailyrainin,SoftwareType,DateUTC
2013-06-02 00:01:00,54.7,28.3,27.23,NW,322,2.7,2.7,36,0.00,,---,0.00,VWS V14.01,2013-06-02 05:01:00,
2013-06-02 00:06:00,54.7,28.3,27.23,NW,312,3.6,3.6,36,0.00,,---,0.00,VWS V14.01,2013-06-02 05:06:00,
2013-06-02 00:11:00,54.7,28.3,27.23,NNW,328,2.2,2.2,36,0.00,,---,0.00,VWS V14.01,2013-06-02 05:11:00,
2013-06-02 00:16:00,54.7,28.3,27.23,NNW,333,4.0,4.0,36,0.00,,---,0.00,VWS V14.01,2013-06-02 05:16:00,
2013-06-02 00:21:00,54.7,28.3,27.23,NW,322,3.6,4.9,36,0.00,,---,0.00,VWS V14.01,2013-06-02 05:21:00,
2013-06-02 00:26:00,54.7,28.3,27.23,NNW,334,2.7,4.0,36,0.00,,---,0.00,VWS V14.01,2013-06-02 05:26:00,
2013-06-02 00:31:00,54.7,28.3,27.23,NW,326,3.6,3.6,36,0.00,,---,0.00,VWS V14.01,2013-06-02 05:31:00,
2013-06-02 00:36:00,54.7,28.3,27.23,NNW,334,3.1,3.6,36,0.00,,---,0.00,VWS V14.01,2013-06-02 05:36:00,
2013-06-02 00:41:00,54.7,28.3,27.23,WNW,298,3.6,3.6,36,0.00,,---,0.00,VWS V14.01,2013-06-02 05:41:00,
2013-06-02 00:46:00,54.7,28.3,27.23,North,349,3.1,4.0,36,0.00,,---,0.00,VWS V14.01,2013-06-02 05:46:00,
2013-06-02 00:51:00,54.7,28.3,27.23,NW,319,4.0,4.0,36,0.00,,---,0.00,VWS V14.01,2013-06-02 05:51:00,
2013-06-02 00:56:00,54.7,28.3,27.23,North,353,3.6,3.6,36,0.00,,---,0.00,VWS V14.01,2013-06-02 05:56:00,
2013-06-02 01:01:00,54.7,28.3,27.23,NW,317,2.7,3.6,36,0.00,,---,0.00,VWS V14.01,2013-06-02 06:01:00,
2013-06-02 01:06:00,54.7,28.3,27.23,NW,314,2.7,2.7,36,0.00,,---,0.00,VWS V14.01,2013-06-02 06:06:00,
2013-06-02 01:11:00,54.7,28.3,27.23,NW,314,2.2,2.2,36,0.00,,---,0.00,VWS V14.01,2013-06-02 06:11:00,
2013-06-02 01:16:00,54.7,28.3,27.23,NW,314,0.0,0.0,36,0.00,,---,0.00,VWS V14.01,2013-06-02 06:16:00,
2013-06-02 01:21:00,54.7,28.3,27.23,NW,314,0.0,0.0,36,0.00,,---,0.00,VWS V14.01,2013-06-02 06:21:00,
2013-06-02 01:26:00,54.7,28.3,27.23,NW,314,0.0,0.0,36,0.00,,---,0.00,VWS V14.01,2013-06-02 06:26:00,
2013-06-02 01:31:00,54.7,28.3,27.23,NW,314,0.0,0.0,36,0.00,,---,0.00,VWS V14.01,2013-06-02 06:31:00,
2013-06-02 01:36:00,54.7,28.3,27.23,NW,310,2.7,2.7,36,0.00,,---,0.00,VWS V14.01,2013-06-02 06:36:00,
2013-06-02 01:41:00,54.7,28.3,27.23,NNW,327,3.1,3.1,36,0.00,,---,0.00,VWS V14.01,2013-06-02 06:41:00,
2013-06-02 01:46:00,54.7,28.3,27.23,NNW,331,2.2,2.7,36,0.00,,---,0.00,VWS V14.01,2013-06-02 06:46:00,
2013-06-02 01:51:00,54.7,28.3,27.23,NW,320,2.7,2.7,36,0.00,,---,0.00,VWS V14.01,2013-06-02 06:51:00,
2013-06-02 01:56:00,54.7,28.3,27.23,NW,307,3.6,3.6,36,0.00,,---,0.00,VWS V14.01,2013-06-02 06:56:00,
2013-06-02 02:01:00,54.7,28.3,27.23,NNW,330,2.7,2.7,36,0.00,,---,0.00,VWS V14.01,2013-06-02 07:01:00,
2013-06-02 02:06:00,54.7,28.3,27.23,WNW,295,3.6,3.6,36,0.00,,---,0.00,VWS V14.01,2013-06-02 07:06:00,
2013-06-02 02:11:00,54.7,28.3,27.23,WNW,293,2.7,3.1,36,0.00,,---,0.00,VWS V14.01,2013-06-02 07:11:00,
2013-06-02 02:16:00,54.7,28.3,27.23,WNW,300,2.7,3.6,36,0.00,,---,0.00,VWS V14.01,2013-06-02 07:16:00,
2013-06-02 02:21:00,54.7,28.3,27.23,WNW,301,2.7,3.1,36,0.00,,---,0.00,VWS V14.01,2013-06-02 07:21:00,
2013-06-02 02:26:00,54.7,28.3,27.23,NW,308,3.6,3.6,36,0.00,,---,0.00,VWS V14.01,2013-06-02 07:26:00,
2013-06-02 02:31:00,54.7,28.3,27.23,NW,305,4.0,4.0,36,0.00,,---,0.00,VWS V14.01,2013-06-02 07:31:00,
2013-06-02 02:36:00,54.7,28.3,27.23,WNW,294,4.9,4.9,36,0.00,,---,0.00,VWS V14.01,2013-06-02 07:36:00,
2013-06-02 02:41:00,54.7,28.3,27.23,NW,304,3.6,3.6,36,0.00,,---,0.00,VWS V14.01,2013-06-02 07:41:00,
2013-06-02 02:46:00,54.7,28.3,27.23,WNW,300,3.1,3.6,36,0.00,,---,0.00,VWS V14.01,2013-06-02 07:46:00,
2013-06-02 02:51:00,54.7,28.3,27.23,WNW,286,2.7,3.6,36,0.00,,---,0.00,VWS V14.01,2013-06-02 07:51:00,
2013-06-02 02:56:00,54.7,28.3,27.23,NNW,340,3.6,4.0,36,0.00,,---,0.00,VWS V14.01,2013-06-02 07:56:00,
2013-06-02 03:01:00,54.7,28.3,27.23,WNW,283,2.7,2.7,36,0.00,,---,0.00,VWS V14.01,2013-06-02 08:01:00,
2013-06-02 03:06:00,54.7,28.3,27.23,NW,314,2.7,2.7,36,0.00,,---,0.00,VWS V14.01,2013-06-02 08:06:00,
2013-06-02 03:11:00,54.7,28.3,27.23,NW,304,2.2,2.7,36,0.00,,---,0.00,VWS V14.01,2013-06-02 08:11:00,
2013-06-02 03:16:00,54.7,28.3,27.23,NNW,331,3.1,3.1,36,0.00,,---,0.00,VWS V14.01,2013-06-02 08:16:00,
2013-06-02 03:21:00,54.7,28.3,27.23,NW,313,3.6,3.6,36,0.00,,---,0.00,VWS V14.01,2013-06-02 08:21:00,
2013-06-02 03:26:00,54.7,28.3,27.23,West,262,2.2,2.7,36,0.00,,---,0.00,VWS V14.01,2013-06-02 08:26:00,
2013-06-02 03:31:00,54.7,28.3,27.23,WSW,254,2.2,2.2,36,0.00,,---,0.00,VWS V14.01,2013-06-02 08:31:00,
2013-06-02 03:36:00,54.7,28.3,27.23,WNW,282,2.7,4.0,36,0.00,,---,0.00,VWS V14.01,2013-06-02 08:36:00,
2013-06-02 03:41:00,54.7,28.3,27.23,West,265,2.7,2.7,36,0.00,,---,0.00,VWS V14.01,2013-06-02 08:41:00,
2013-06-02 03:46:00,54.7,28.3,27.23,West,259,2.2,2.2,36,0.00,,---,0.00,VWS V14.01,2013-06-02 08:46:00,
2013-06-02 03:51:00,54.7,28.3,27.23,West,278,2.2,2.2,36,0.00,,---,0.00,VWS V14.01,2013-06-02 08:51:00,
2013-06-02 03:56:00,54.7,28.3,27.23,NW,326,2.7,2.7,36,0.00,,---,0.00,VWS V14.01,2013-06-02 08:56:00,
2013-06-02 04:01:00,54.7,28.3,27.23,West,269,2.7,2.7,36,0.00,,---,0.00,VWS V14.01,2013-06-02 09:01:00,
2013-06-02 04:06:00,54.7,28.3,27.23,West,260,2.7,3.6,36,0.00,,---,0.00,VWS V14.01,2013-06-02 09:06:00,
2013-06-02 04:11:00,54.7,28.3,27.23,WSW,249,3.1,3.1,36,0.00,,---,0.00,VWS V14.01,2013-06-02 09:11:00,
2013-06-02 04:16:00,54.7,28.3,27.23,WSW,246,2.7,2.7,36,0.00,,---,0.00,VWS V14.01,2013-06-02 09:16:00,
2013-06-02 04:21:00,54.7,28.3,27.23,WSW,252,2.2,2.2,36,0.00,,---,0.00,VWS V14.01,2013-06-02 09:21:00,
2013-06-02 04:26:00,54.7,28.3,27.23,West,260,3.6,3.6,36,0.00,,---,0.00,VWS V14.01,2013-06-02 09:26:00,
2013-06-02 04:31:00,54.7,28.3,27.23,West,263,3.1,3.1,36,0.00,,---,0.00,VWS V14.01,2013-06-02 09:31:00,
2013-06-02 04:36:00,54.7,28.3,27.23,WSW,257,3.6,3.6,36,0.00,,---,0.00,VWS V14.01,2013-06-02 09:36:00,
2013-06-02 04:41:00,54.7,28.3,27.23,WNW,303,3.6,3.6,36,0.00,,---,0.00,VWS V14.01,2013-06-02 09:41:00,
2013-06-02 04:46:00,54.7,28.3,27.23,West,281,2.2,2.2,36,0.00,,---,0.00,VWS V14.01,2013-06-02 09:46:00,
2013-06-02 04:51:00,54.7,28.3,27.23,WNW,284,2.7,2.7,36,0.00,,---,0.00,VWS V14.01,2013-06-02 09:51:00,
2013-06-02 04:56:00,54.7,28.3,27.23,West,276,5.4,5.4,36,0.00,,---,0.00,VWS V14.01,2013-06-02 09:56:00,
2013-06-02 05:01:00,54.7,28.3,27.23,West,271,3.1,3.6,36,0.00,,---,0.00,VWS V14.01,2013-06-02 10:01:00,
2013-06-02 05:06:00,54.7,28.3,27.23,West,267,3.1,4.0,36,0.00,,---,0.00,VWS V14.01,2013-06-02 10:06:00,
2013-06-02 05:11:00,54.7,28.3,27.23,WNW,299,0.0,2.2,36,0.00,,---,0.00,VWS V14.01,2013-06-02 10:11:00,
2013-06-02 05:16:00,54.7,28.3,27.23,West,276,3.1,3.1,36,0.00,,---,0.00,VWS V14.01,2013-06-02 10:16:00,
2013-06-02 05:21:00,54.7,28.3,27.23,WNW,298,0.0,3.1,36,0.00,,---,0.00,VWS V14.01,2013-06-02 10:21:00,
2013-06-02 05:26:00,54.7,28.3,27.23,NW,313,4.0,4.0,36,0.00,,---,0.00,VWS V14.01,2013-06-02 10:26:00,
2013-06-02 05:31:00,54.7,28.3,27.23,NNW,328,2.2,3.1,36,0.00,,---,0.00,VWS V14.01,2013-06-02 10:31:00,
2013-06-02 05:36:00,54.7,28.3,27.23,NNW,327,2.7,4.0,36,0.00,,---,0.00,VWS V14.01,2013-06-02 10:36:00,
2013-06-02 05:41:00,54.7,28.3,27.23,NNW,328,3.1,4.0,36,0.00,,---,0.00,VWS V14.01,2013-06-02 10:41:00,
2013-06-02 05:46:00,39.6,18.9,27.23,NNW,346,2.7,2.7,43,0.00,,---,0.00,VWS V14.01,2013-06-02 10:46:00,
2013-06-02 05:51:00,39.6,18.9,27.23,WNW,292,3.1,3.1,43,0.00,,---,0.00,VWS V14.01,2013-06-02 10:51:00,
2013-06-02 05:56:00,39.6,18.9,27.23,West,276,4.9,4.9,43,0.00,,---,0.00,VWS V14.01,2013-06-02 10:56:00,
2013-06-02 06:01:00,39.2,18.6,27.23,NW,322,0.0,0.0,43,0.00,,---,0.00,VWS V14.01,2013-06-02 11:01:00,
2013-06-02 06:06:00,39.4,18.8,27.23,NW,312,2.7,2.7,43,0.00,,---,0.00,VWS V14.01,2013-06-02 11:06:00,
2013-06-02 06:11:00,39.6,19.5,27.23,WNW,297,2.2,2.2,44,0.00,,---,0.00,VWS V14.01,2013-06-02 11:11:00,
2013-06-02 06:16:00,40.1,20.0,27.26,NW,317,2.7,2.7,44,0.00,,---,0.00,VWS V14.01,2013-06-02 11:16:00,
2013-06-02 06:21:00,39.4,19.3,27.26,WNW,287,2.2,2.2,44,0.00,,---,0.00,VWS V14.01,2013-06-02 11:21:00,
2013-06-02 06:26:00,39.6,18.9,27.26,WNW,293,0.0,0.0,43,0.00,,---,0.00,VWS V14.01,2013-06-02 11:26:00,
2013-06-02 06:31:00,38.8,18.3,27.26,WNW,292,0.0,0.0,43,0.00,,---,0.00,VWS V14.01,2013-06-02 11:31:00,
2013-06-02 06:36:00,39.0,18.4,27.26,WNW,292,0.0,0.0,43,0.00,,---,0.00,VWS V14.01,2013-06-02 11:36:00,
2013-06-02 06:40:00,39.7,18.0,27.26,WNW,301,0.0,0.0,41,0.00,,---,0.00,VWS V14.01,2013-06-02 11:40:00,
2013-06-02 06:45:00,40.6,18.2,27.26,SW,215,0.0,2.7,40,0.00,,---,0.00,VWS V14.01,2013-06-02 11:45:00,
2013-06-02 06:50:00,41.4,18.3,27.26,NNW,335,2.7,2.7,39,0.00,,---,0.00,VWS V14.01,2013-06-02 11:50:00,
2013-06-02 06:56:00,41.2,18.1,27.26,WSW,254,4.0,4.0,39,0.00,,---,0.00,VWS V14.01,2013-06-02 11:56:00,
2013-06-02 07:01:00,41.5,18.4,27.23,WNW,291,4.9,5.4,39,0.00,,---,0.00,VWS V14.01,2013-06-02 12:01:00,
2013-06-02 07:06:00,43.2,19.3,27.23,WNW,284,0.0,0.0,38,0.00,,---,0.00,VWS V14.01,2013-06-02 12:06:00,
2013-06-02 07:11:00,42.8,19.0,27.23,West,277,0.0,0.0,38,0.00,,---,0.00,VWS V14.01,2013-06-02 12:11:00,
2013-06-02 07:16:00,43.9,19.9,27.26,WNW,282,0.0,0.0,38,0.00,,---,0.00,VWS V14.01,2013-06-02 12:16:00,
2013-06-02 07:20:00,43.9,19.9,27.26,SW,227,4.9,4.9,38,0.00,,---,0.00,VWS V14.01,2013-06-02 12:20:00,
2013-06-02 07:25:00,45.0,20.9,27.26,SW,224,4.0,4.0,38,0.00,,---,0.00,VWS V14.01,2013-06-02 12:25:00,
2013-06-02 07:30:00,45.1,21.1,27.26,SW,225,2.2,2.2,38,0.00,,---,0.00,VWS V14.01,2013-06-02 12:30:00,
2013-06-02 07:36:00,48.0,23.0,27.26,SW,226,2.2,2.7,37,0.00,,---,0.00,VWS V14.01,2013-06-02 12:36:00,
2013-06-02 07:40:00,46.6,21.7,27.26,WSW,253,3.1,3.6,37,0.00,,---,0.00,VWS V14.01,2013-06-02 12:40:00,
2013-06-02 07:45:00,48.6,23.5,27.26,SW,217,3.1,3.1,37,0.00,,---,0.00,VWS V14.01,2013-06-02 12:45:00,
2013-06-02 07:50:00,49.5,24.3,27.26,SW,217,0.0,3.1,37,0.00,,---,0.00,VWS V14.01,2013-06-02 12:50:00,
2013-06-02 07:55:00,51.1,25.1,27.26,SW,217,0.0,2.2,36,0.00,,---,0.00,VWS V14.01,2013-06-02 12:55:00,
2013-06-02 08:00:00,53.4,27.1,27.23,WNW,288,2.7,2.7,36,0.00,,---,0.00,VWS V14.01,2013-06-02 13:00:00,
2013-06-02 08:05:00,55.4,28.2,27.23,WNW,290,0.0,0.0,35,0.00,,---,0.00,VWS V14.01,2013-06-02 13:05:00,
2013-06-02 08:10:00,56.8,29.5,27.23,WNW,290,0.0,0.0,35,0.00,,---,0.00,VWS V14.01,2013-06-02 13:10:00,
2013-06-02 08:15:00,54.7,28.3,27.23,WNW,290,2.7,2.7,36,0.00,,---,0.00,VWS V14.01,2013-06-02 13:15:00,
2013-06-02 08:20:00,54.7,28.3,27.23,SW,233,2.7,3.1,36,0.00,,---,0.00,VWS V14.01,2013-06-02 13:20:00,
2013-06-02 08:25:00,57.4,30.0,27.23,WNW,300,3.6,3.6,35,0.00,,---,0.00,VWS V14.01,2013-06-02 13:25:00,
2013-06-02 08:30:00,56.1,28.9,27.23,West,276,3.1,3.1,35,0.00,,---,0.00,VWS V14.01,2013-06-02 13:30:00,
2013-06-02 08:35:00,56.5,29.2,27.23,SW,232,2.7,2.7,35,0.00,,---,0.00,VWS V14.01,2013-06-02 13:35:00,
2013-06-02 08:40:00,55.6,28.4,27.23,SW,216,2.7,3.6,35,0.00,,---,0.00,VWS V14.01,2013-06-02 13:40:00,
2013-06-02 08:45:00,55.4,28.2,27.23,SW,219,4.0,4.0,35,0.00,,---,0.00,VWS V14.01,2013-06-02 13:45:00,
2013-06-02 08:50:00,58.5,30.9,27.23,WNW,289,0.0,2.2,35,0.00,,---,0.00,VWS V14.01,2013-06-02 13:50:00,
2013-06-02 08:55:00,60.4,32.7,27.23,WSW,255,0.0,2.7,35,0.00,,---,0.00,VWS V14.01,2013-06-02 13:55:00,
2013-06-02 09:00:00,57.7,30.3,27.23,SW,216,3.6,5.8,35,0.00,,---,0.00,VWS V14.01,2013-06-02 14:00:00,
2013-06-02 09:05:00,57.4,30.0,27.23,SW,217,3.1,3.6,35,0.00,,---,0.00,VWS V14.01,2013-06-02 14:05:00,
2013-06-02 09:10:00,57.9,30.5,27.23,SSW,192,3.6,4.0,35,0.00,,---,0.00,VWS V14.01,2013-06-02 14:10:00,
2013-06-02 09:15:00,58.3,30.8,27.26,SW,224,4.0,4.0,35,0.00,,---,0.00,VWS V14.01,2013-06-02 14:15:00,
2013-06-02 09:20:00,59.2,31.6,27.26,SW,225,3.1,3.1,35,0.00,,---,0.00,VWS V14.01,2013-06-02 14:20:00,
2013-06-02 09:25:00,59.0,31.4,27.26,SSW,199,3.6,4.9,35,0.00,,---,0.00,VWS V14.01,2013-06-02 14:25:00,
2013-06-02 09:30:00,60.4,32.7,27.26,SW,234,3.6,3.6,35,0.00,,---,0.00,VWS V14.01,2013-06-02 14:30:00,
2013-06-02 09:35:00,61.3,32.8,27.26,South,183,2.7,2.7,34,0.00,,---,0.00,VWS V14.01,2013-06-02 14:35:00,
2013-06-02 09:40:00,59.7,32.0,27.26,South,178,4.0,4.0,35,0.00,,---,0.00,VWS V14.01,2013-06-02 14:40:00,
2013-06-02 09:45:00,61.2,32.6,27.23,SSW,192,2.7,2.7,34,0.00,,---,0.00,VWS V14.01,2013-06-02 14:45:00,
2013-06-02 09:50:00,64.0,35.1,27.23,South,190,0.0,0.0,34,0.00,,---,0.00,VWS V14.01,2013-06-02 14:50:00,
2013-06-02 09:55:00,65.1,35.3,27.23,South,173,2.7,2.7,33,0.00,,---,0.00,VWS V14.01,2013-06-02 14:55:00,
2013-06-02 10:00:00,63.5,34.7,27.23,SW,230,6.3,6.3,34,0.00,,---,0.00,VWS V14.01,2013-06-02 15:00:00,
2013-06-02 10:05:00,61.7,33.1,27.23,South,191,3.1,3.1,34,0.00,,---,0.00,VWS V14.01,2013-06-02 15:05:00,
2013-06-02 10:10:00,63.7,34.8,27.23,SSW,208,0.0,0.0,34,0.00,,---,0.00,VWS V14.01,2013-06-02 15:10:00,
2013-06-02 10:15:00,67.6,37.5,27.23,NW,308,2.2,2.2,33,0.00,,---,0.00,VWS V14.01,2013-06-02 15:15:00,
2013-06-02 10:20:00,69.4,39.1,27.23,SW,224,0.0,0.0,33,0.00,,---,0.00,VWS V14.01,2013-06-02 15:20:00,
2013-06-02 10:25:00,70.0,38.8,27.23,SW,217,0.0,0.0,32,0.00,,---,0.00,VWS V14.01,2013-06-02 15:25:00,
2013-06-02 10:30:00,67.6,37.5,27.23,South,174,2.7,3.6,33,0.00,,---,0.00,VWS V14.01,2013-06-02 15:30:00,
2013-06-02 10:35:00,63.7,34.8,27.23,SSW,210,4.0,5.8,34,0.00,,---,0.00,VWS V14.01,2013-06-02 15:35:00,
2013-06-02 10:40:00,63.9,35.0,27.23,SW,221,2.7,2.7,34,0.00,,---,0.00,VWS V14.01,2013-06-02 15:40:00,
2013-06-02 10:45:00,68.2,38.0,27.23,NW,308,2.2,2.2,33,0.00,,---,0.00,VWS V14.01,2013-06-02 15:45:00,
2013-06-02 10:50:00,69.3,39.0,27.23,NW,308,2.7,2.7,33,0.00,,---,0.00,VWS V14.01,2013-06-02 15:50:00,
2013-06-02 10:55:00,68.4,38.2,27.23,South,171,2.2,2.7,33,0.00,,---,0.00,VWS V14.01,2013-06-02 15:55:00,
2013-06-02 11:00:00,66.2,36.3,27.23,SW,227,2.2,3.1,33,0.00,,---,0.00,VWS V14.01,2013-06-02 16:00:00,
2013-06-02 11:05:00,69.1,38.8,27.23,SSW,198,2.7,2.7,33,0.00,,---,0.00,VWS V14.01,2013-06-02 16:05:00,
2013-06-02 11:10:00,68.7,38.5,27.23,WNW,287,2.7,2.7,33,0.00,,---,0.00,VWS V14.01,2013-06-02 16:10:00,
2013-06-02 11:15:00,71.1,39.7,27.23,NE,44,4.0,6.3,32,0.00,,---,0.00,VWS V14.01,2013-06-02 16:15:00,
2013-06-02 11:20:00,69.8,38.6,27.23,NE,46,4.0,4.0,32,0.00,,---,0.00,VWS V14.01,2013-06-02 16:20:00,
2013-06-02 11:25:00,70.9,39.6,27.23,ENE,60,0.0,0.0,32,0.00,,---,0.00,VWS V14.01,2013-06-02 16:25:00,
2013-06-02 11:30:00,72.9,41.3,27.23,ESE,117,0.0,0.0,32,0.00,,---,0.00,VWS V14.01,2013-06-02 16:30:00,
2013-06-02 11:35:00,69.6,39.3,27.23,West,265,3.1,4.0,33,0.00,,---,0.00,VWS V14.01,2013-06-02 16:35:00,
2013-06-02 11:40:00,67.1,37.1,27.23,SW,233,2.2,2.2,33,0.00,,---,0.00,VWS V14.01,2013-06-02 16:40:00,
2013-06-02 11:45:00,72.3,40.8,27.20,NNW,329,3.1,3.1,32,0.00,,---,0.00,VWS V14.01,2013-06-02 16:45:00,
2013-06-02 11:50:00,68.5,38.3,27.20,WSW,238,3.6,3.6,33,0.00,,---,0.00,VWS V14.01,2013-06-02 16:50:00,
2013-06-02 11:55:00,72.9,41.3,27.20,SSW,195,0.0,0.0,32,0.00,,---,0.00,VWS V14.01,2013-06-02 16:55:00,
2013-06-02 12:00:00,73.0,41.5,27.20,SSE,150,2.7,2.7,32,0.00,,---,0.00,VWS V14.01,2013-06-02 17:00:00,
2013-06-02 12:05:00,70.3,39.1,27.20,SSW,210,4.9,4.9,32,0.00,,---,0.00,VWS V14.01,2013-06-02 17:05:00,
2013-06-02 12:10:00,69.4,39.1,27.20,North,5,2.7,2.7,33,0.00,,---,0.00,VWS V14.01,2013-06-02 17:10:00,
2013-06-02 12:15:00,71.4,40.0,27.20,North,350,4.0,4.0,32,0.00,,---,0.00,VWS V14.01,2013-06-02 17:15:00,
2013-06-02 12:20:00,73.0,41.5,27.20,NW,310,2.7,2.7,32,0.00,,---,0.00,VWS V14.01,2013-06-02 17:20:00,
2013-06-02 12:25:00,71.6,40.2,27.20,SSW,196,3.1,3.1,32,0.00,,---,0.00,VWS V14.01,2013-06-02 17:25:00,
2013-06-02 12:30:00,73.6,41.1,27.20,South,182,3.1,3.1,31,0.00,,---,0.00,VWS V14.01,2013-06-02 17:30:00,
2013-06-02 12:35:00,75.2,42.5,27.20,SSE,162,3.1,3.1,31,0.00,,---,0.00,VWS V14.01,2013-06-02 17:35:00,
2013-06-02 12:40:00,74.8,42.2,27.20,SSE,153,3.6,3.6,31,0.00,,---,0.00,VWS V14.01,2013-06-02 17:40:00,
2013-06-02 12:45:00,73.8,41.3,27.20,SSE,150,5.4,5.4,31,0.00,,---,0.00,VWS V14.01,2013-06-02 17:45:00,
2013-06-02 12:50:00,74.1,41.6,27.20,SE,139,0.0,2.7,31,0.00,,---,0.00,VWS V14.01,2013-06-02 17:50:00,
2013-06-02 12:55:00,75.7,43.0,27.20,SSE,161,3.6,3.6,31,0.00,,---,0.00,VWS V14.01,2013-06-02 17:55:00,
2013-06-02 13:00:00,75.0,42.4,27.20,SE,146,5.8,5.8,31,0.00,,---,0.00,VWS V14.01,2013-06-02 18:00:00,
2013-06-02 13:05:00,75.9,43.1,27.20,SSE,150,3.6,3.6,31,0.00,,---,0.00,VWS V14.01,2013-06-02 18:05:00,
2013-06-02 13:10:00,74.3,41.7,27.20,SE,141,3.6,3.6,31,0.00,,---,0.00,VWS V14.01,2013-06-02 18:10:00,
2013-06-02 13:15:00,70.7,39.4,27.20,WNW,287,2.7,2.7,32,0.00,,---,0.00,VWS V14.01,2013-06-02 18:15:00,
2013-06-02 13:20:00,74.1,41.6,27.20,NNE,27,3.6,3.6,31,0.00,,---,0.00,VWS V14.01,2013-06-02 18:20:00,
2013-06-02 13:25:00,76.1,43.3,27.20,SE,136,2.7,2.7,31,0.00,,---,0.00,VWS V14.01,2013-06-02 18:25:00,
2013-06-02 13:30:00,76.6,43.8,27.20,SSE,149,2.2,2.2,31,0.00,,---,0.00,VWS V14.01,2013-06-02 18:30:00,
2013-06-02 13:35:00,76.8,43.9,27.17,East,93,4.0,4.0,31,0.00,,---,0.00,VWS V14.01,2013-06-02 18:35:00,
2013-06-02 13:40:00,75.6,42.8,27.17,ENE,71,2.2,2.2,31,0.00,,---,0.00,VWS V14.01,2013-06-02 18:40:00,
2013-06-02 13:45:00,75.0,42.4,27.17,East,95,2.2,2.2,31,0.00,,---,0.00,VWS V14.01,2013-06-02 18:45:00,
2013-06-02 13:50:00,75.7,43.0,27.17,ESE,117,3.1,3.1,31,0.00,,---,0.00,VWS V14.01,2013-06-02 18:50:00,
2013-06-02 13:55:00,72.1,40.7,27.17,NE,56,2.7,6.3,32,0.00,,---,0.00,VWS V14.01,2013-06-02 18:55:00,
2013-06-02 14:00:00,70.3,39.1,27.17,ENE,61,2.7,3.6,32,0.00,,---,0.00,VWS V14.01,2013-06-02 19:00:00,
2013-06-02 14:05:00,72.5,41.0,27.17,NE,52,2.7,4.0,32,0.00,,---,0.00,VWS V14.01,2013-06-02 19:05:00,
2013-06-02 14:10:00,72.5,41.0,27.17,ENE,66,3.6,3.6,32,0.00,,---,0.00,VWS V14.01,2013-06-02 19:10:00,
2013-06-02 14:15:00,75.6,42.8,27.17,NE,47,0.0,0.0,31,0.00,,---,0.00,VWS V14.01,2013-06-02 19:15:00,
2013-06-02 14:20:00,75.0,42.4,27.17,East,101,3.6,3.6,31,0.00,,---,0.00,VWS V14.01,2013-06-02 19:20:00,
2013-06-02 14:25:00,77.2,44.2,27.17,ESE,111,3.6,3.6,31,0.00,,---,0.00,VWS V14.01,2013-06-02 19:25:00,
2013-06-02 14:30:00,78.3,45.2,27.14,East,90,0.0,0.0,31,0.00,,---,0.00,VWS V14.01,2013-06-02 19:30:00,
2013-06-02 14:35:00,73.0,41.5,27.14,NE,36,6.3,6.3,32,0.00,,---,0.00,VWS V14.01,2013-06-02 19:35:00,
2013-06-02 14:40:00,75.9,43.1,27.14,ESE,105,2.7,2.7,31,0.00,,---,0.00,VWS V14.01,2013-06-02 19:40:00,
2013-06-02 14:45:00,78.1,45.0,27.14,NE,54,2.7,2.7,31,0.00,,---,0.00,VWS V14.01,2013-06-02 19:45:00,
2013-06-02 14:50:00,76.8,43.9,27.14,SSE,158,4.0,6.3,31,0.00,,---,0.00,VWS V14.01,2013-06-02 19:50:00,
2013-06-02 14:55:00,72.1,40.7,27.14,SSW,210,5.4,5.4,32,0.00,,---,0.00,VWS V14.01,2013-06-02 19:55:00,
2013-06-02 15:00:00,76.5,43.6,27.14,SE,138,6.3,6.3,31,0.00,,---,0.00,VWS V14.01,2013-06-02 20:00:00,
2013-06-02 15:05:00,77.7,44.7,27.14,SE,140,3.1,3.1,31,0.00,,---,0.00,VWS V14.01,2013-06-02 20:05:00,
2013-06-02 15:10:00,78.1,45.0,27.14,ESE,117,2.7,3.6,31,0.00,,---,0.00,VWS V14.01,2013-06-02 20:10:00,
2013-06-02 15:15:00,77.0,44.1,27.14,SE,144,0.0,0.0,31,0.00,,---,0.00,VWS V14.01,2013-06-02 20:15:00,
2013-06-02 15:20:00,81.0,46.6,27.14,ESE,102,4.0,5.8,30,0.00,,---,0.00,VWS V14.01,2013-06-02 20:20:00,
2013-06-02 15:25:00,79.7,45.6,27.14,SE,133,2.2,2.2,30,0.00,,---,0.00,VWS V14.01,2013-06-02 20:25:00,
2013-06-02 15:30:00,78.1,45.0,27.14,SE,129,5.4,5.4,31,0.00,,---,0.00,VWS V14.01,2013-06-02 20:30:00,
2013-06-02 15:35:00,79.9,45.7,27.14,SE,137,2.2,2.2,30,0.00,,---,0.00,VWS V14.01,2013-06-02 20:35:00,
2013-06-02 15:40:00,79.0,44.9,27.14,SSE,151,2.7,2.7,30,0.00,,---,0.00,VWS V14.01,2013-06-02 20:40:00,
2013-06-02 15:45:00,79.0,44.9,27.11,SE,145,3.6,3.6,30,0.00,,---,0.00,VWS V14.01,2013-06-02 20:45:00,
2013-06-02 15:50:00,78.6,45.5,27.11,ESE,107,2.7,2.7,31,0.00,,---,0.00,VWS V14.01,2013-06-02 20:50:00,
2013-06-02 15:55:00,79.0,44.9,27.11,ESE,105,0.0,0.0,30,0.00,,---,0.00,VWS V14.01,2013-06-02 20:55:00,
2013-06-02 16:00:00,76.5,43.6,27.11,SE,128,4.0,4.0,31,0.00,,---,0.00,VWS V14.01,2013-06-02 21:00:00,
2013-06-02 16:05:00,77.7,44.7,27.11,ESE,123,5.4,5.4,31,0.00,,---,0.00,VWS V14.01,2013-06-02 21:05:00,
2013-06-02 16:10:00,77.4,44.4,27.11,SE,127,5.8,5.8,31,0.00,,---,0.00,VWS V14.01,2013-06-02 21:10:00,
2013-06-02 16:15:00,77.9,44.9,27.11,East,96,2.7,2.7,31,0.00,,---,0.00,VWS V14.01,2013-06-02 21:15:00,
2013-06-02 16:20:00,77.5,44.5,27.11,ESE,113,2.7,2.7,31,0.00,,---,0.00,VWS V14.01,2013-06-02 21:20:00,
2013-06-02 16:25:00,76.6,43.8,27.11,SE,136,5.4,8.1,31,0.00,,---,0.00,VWS V14.01,2013-06-02 21:25:00,
2013-06-02 16:30:00,76.5,43.6,27.11,SE,134,5.8,5.8,31,0.00,,---,0.00,VWS V14.01,2013-06-02 21:30:00,
2013-06-02 16:35:00,76.8,43.9,27.11,SSW,196,4.0,6.3,31,0.00,,---,0.00,VWS V14.01,2013-06-02 21:35:00,
2013-06-02 16:40:00,77.2,44.2,27.11,South,173,8.3,8.3,31,0.00,,---,0.00,VWS V14.01,2013-06-02 21:40:00,
2013-06-02 16:45:00,76.8,43.9,27.11,East,90,4.0,4.0,31,0.00,,---,0.00,VWS V14.01,2013-06-02 21:45:00,
2013-06-02 16:50:00,77.2,44.2,27.11,SE,140,3.6,3.6,31,0.00,,---,0.00,VWS V14.01,2013-06-02 21:50:00,
2013-06-02 16:55:00,78.8,44.8,27.11,ESE,105,2.7,3.6,30,0.00,,---,0.00,VWS V14.01,2013-06-02 21:55:00,
2013-06-02 17:00:00,75.7,43.0,27.11,SE,133,6.3,6.3,31,0.00,,---,0.00,VWS V14.01,2013-06-02 22:00:00,
2013-06-02 17:05:00,76.3,43.5,27.11,SE,130,4.0,5.8,31,0.00,,---,0.00,VWS V14.01,2013-06-02 22:05:00,
2013-06-02 17:10:00,74.8,42.2,27.11,SE,131,6.3,6.7,31,0.00,,---,0.00,VWS V14.01,2013-06-02 22:10:00,
2013-06-02 17:15:00,76.3,43.5,27.08,ESE,122,3.1,3.1,31,0.00,,---,0.00,VWS V14.01,2013-06-02 22:15:00,
2013-06-02 17:20:00,76.5,43.6,27.08,ESE,121,5.4,8.3,31,0.00,,---,0.00,VWS V14.01,2013-06-02 22:20:00,
2013-06-02 17:25:00,75.6,42.8,27.08,SE,139,5.8,6.7,31,0.00,,---,0.00,VWS V14.01,2013-06-02 22:25:00,
2013-06-02 17:30:00,76.3,43.5,27.08,South,181,4.9,8.3,31,0.00,,---,0.00,VWS V14.01,2013-06-02 22:30:00,
2013-06-02 17:35:00,77.0,44.1,27.08,SE,138,6.3,6.3,31,0.00,,---,0.00,VWS V14.01,2013-06-02 22:35:00,
2013-06-02 17:40:00,77.7,44.7,27.08,South,184,5.4,11.0,31,0.00,,---,0.00,VWS V14.01,2013-06-02 22:40:00,
2013-06-02 17:45:00,77.0,44.1,27.08,South,188,4.5,4.5,31,0.00,,---,0.00,VWS V14.01,2013-06-02 22:45:00,
2013-06-02 17:50:00,77.4,44.4,27.08,SE,145,6.7,6.7,31,0.00,,---,0.00,VWS V14.01,2013-06-02 22:50:00,
2013-06-02 17:55:00,77.2,44.2,27.08,South,190,7.2,7.2,31,0.00,,---,0.00,VWS V14.01,2013-06-02 22:55:00,
2013-06-02 18:00:00,75.9,43.1,27.08,South,182,6.3,6.3,31,0.00,,---,0.00,VWS V14.01,2013-06-02 23:00:00,
2013-06-02 18:05:00,75.4,42.7,27.08,SE,132,5.8,5.8,31,0.00,,---,0.00,VWS V14.01,2013-06-02 23:05:00,
2013-06-02 18:10:00,74.8,42.2,27.08,SE,140,6.3,6.3,31,0.00,,---,0.00,VWS V14.01,2013-06-02 23:10:00,
2013-06-02 18:15:00,74.8,42.2,27.08,SSE,149,6.3,8.3,31,0.00,,---,0.00,VWS V14.01,2013-06-02 23:15:00,
2013-06-02 18:20:00,75.6,42.8,27.08,SE,145,5.4,6.3,31,0.00,,---,0.00,VWS V14.01,2013-06-02 23:20:00,
2013-06-02 18:25:00,74.8,42.2,27.08,SE,130,5.8,6.3,31,0.00,,---,0.00,VWS V14.01,2013-06-02 23:25:00,
2013-06-02 18:30:00,74.8,42.2,27.08,SE,138,5.8,5.8,31,0.00,,---,0.00,VWS V14.01,2013-06-02 23:30:00,
2013-06-02 18:35:00,74.1,41.6,27.08,SSE,156,7.6,8.1,31,0.00,,---,0.00,VWS V14.01,2013-06-02 23:35:00,
2013-06-02 18:40:00,75.2,42.5,27.08,SSE,147,7.6,7.6,31,0.00,,---,0.00,VWS V14.01,2013-06-02 23:40:00,
2013-06-02 18:45:00,74.5,41.9,27.08,SE,125,7.2,7.2,31,0.00,,---,0.00,VWS V14.01,2013-06-02 23:45:00,
2013-06-02 18:50:00,75.0,42.4,27.08,SSE,153,5.8,5.8,31,0.00,,---,0.00,VWS V14.01,2013-06-02 23:50:00,
2013-06-02 18:55:00,74.3,41.7,27.08,SE,144,8.1,8.1,31,0.00,,---,0.00,VWS V14.01,2013-06-02 23:55:00,
2013-06-02 19:00:00,74.1,41.6,27.05,SE,136,4.9,4.9,31,0.00,,---,0.00,VWS V14.01,2013-06-03 00:00:00,
2013-06-02 19:05:00,73.4,41.0,27.05,SE,139,8.7,8.7,31,0.00,,---,0.00,VWS V14.01,2013-06-03 00:05:00,
2013-06-02 19:10:00,73.0,41.5,27.05,SE,129,5.8,6.3,32,0.00,,---,0.00,VWS V14.01,2013-06-03 00:10:00,
2013-06-02 19:15:00,73.4,41.0,27.05,SE,134,5.4,6.3,31,0.00,,---,0.00,VWS V14.01,2013-06-03 00:15:00,
2013-06-02 19:20:00,72.9,41.3,27.05,SE,128,8.3,8.3,32,0.00,,---,0.00,VWS V14.01,2013-06-03 00:20:00,
2013-06-02 19:25:00,72.9,41.3,27.05,SE,131,5.8,6.3,32,0.00,,---,0.00,VWS V14.01,2013-06-03 00:25:00,
2013-06-02 19:30:00,72.7,41.2,27.05,SE,128,5.8,8.1,32,0.00,,---,0.00,VWS V14.01,2013-06-03 00:30:00,
2013-06-02 19:35:00,71.8,40.4,27.05,ESE,121,5.8,5.8,32,0.00,,---,0.00,VWS V14.01,2013-06-03 00:35:00,
2013-06-02 19:40:00,71.8,40.4,27.05,ESE,122,7.2,7.2,32,0.00,,---,0.00,VWS V14.01,2013-06-03 00:40:00,
2013-06-02 19:45:00,71.4,40.0,27.05,SE,125,6.3,6.3,32,0.00,,---,0.00,VWS V14.01,2013-06-03 00:45:00,
2013-06-02 19:50:00,71.4,40.0,27.05,SE,125,5.4,6.3,32,0.00,,---,0.00,VWS V14.01,2013-06-03 00:50:00,
2013-06-02 19:55:00,70.9,39.6,27.05,ESE,123,5.8,8.1,32,0.00,,---,0.00,VWS V14.01,2013-06-03 00:55:00,
2013-06-02 20:00:00,70.5,39.3,27.05,SE,134,6.3,6.3,32,0.00,,---,0.00,VWS V14.01,2013-06-03 01:00:00,
2013-06-02 20:05:00,69.4,39.1,27.05,SE,133,8.1,8.1,33,0.00,,---,0.00,VWS V14.01,2013-06-03 01:05:00,
2013-06-02 20:10:00,69.1,38.8,27.05,SE,128,5.8,5.8,33,0.00,,---,0.00,VWS V14.01,2013-06-03 01:10:00,
2013-06-02 20:15:00,68.5,38.3,27.05,SE,124,5.4,5.4,33,0.00,,---,0.00,VWS V14.01,2013-06-03 01:15:00,
2013-06-02 20:20:00,68.0,37.8,27.05,ESE,116,5.8,5.8,33,0.00,,---,0.00,VWS V14.01,2013-06-03 01:20:00,
2013-06-02 20:25:00,67.5,37.4,27.05,SE,126,5.4,6.3,33,0.00,,---,0.00,VWS V14.01,2013-06-03 01:25:00,
2013-06-02 20:30:00,67.5,37.4,27.05,SE,128,5.4,5.4,33,0.00,,---,0.00,VWS V14.01,2013-06-03 01:30:00,
2013-06-02 20:35:00,67.5,37.4,27.05,SE,127,4.9,5.4,33,0.00,,---,0.00,VWS V14.01,2013-06-03 01:35:00,
2013-06-02 20:40:00,67.3,37.2,27.05,SE,127,5.4,5.4,33,0.00,,---,0.00,VWS V14.01,2013-06-03 01:40:00,
2013-06-02 20:45:00,66.9,36.9,27.05,SE,124,5.4,5.4,33,0.00,,---,0.00,VWS V14.01,2013-06-03 01:45:00,
2013-06-02 20:50:00,66.0,36.1,27.05,SE,127,5.4,5.4,33,0.00,,---,0.00,VWS V14.01,2013-06-03 01:50:00,
2013-06-02 20:55:00,65.5,35.6,27.05,ESE,123,4.5,4.9,33,0.00,,---,0.00,VWS V14.01,2013-06-03 01:55:00,
2013-06-02 21:00:00,64.8,35.0,27.05,ESE,123,3.6,4.0,33,0.00,,---,0.00,VWS V14.01,2013-06-03 02:00:00,
2013-06-02 21:05:00,64.4,34.7,27.05,ESE,123,5.4,5.4,33,0.00,,---,0.00,VWS V14.01,2013-06-03 02:05:00,
2013-06-02 21:10:00,64.0,35.1,27.05,ESE,123,4.9,4.9,34,0.00,,---,0.00,VWS V14.01,2013-06-03 02:10:00,
2013-06-02 21:15:00,64.0,35.1,27.05,ESE,123,4.0,4.9,34,0.00,,---,0.00,VWS V14.01,2013-06-03 02:15:00,
2013-06-02 21:20:00,63.5,34.7,27.05,ESE,123,5.4,5.4,34,0.00,,---,0.00,VWS V14.01,2013-06-03 02:20:00,
2013-06-02 21:25:00,63.3,34.5,27.05,ESE,123,4.5,4.9,34,0.00,,---,0.00,VWS V14.01,2013-06-03 02:25:00,
2013-06-02 21:30:00,63.3,34.5,27.02,ESE,123,3.1,4.0,34,0.00,,---,0.00,VWS V14.01,2013-06-03 02:30:00,
2013-06-02 21:35:00,62.2,33.5,27.02,ESE,123,3.1,3.1,34,0.00,,---,0.00,VWS V14.01,2013-06-03 02:35:00,
2013-06-02 21:40:00,62.2,33.5,27.02,ESE,123,3.6,3.6,34,0.00,,---,0.00,VWS V14.01,2013-06-03 02:40:00,
2013-06-02 21:45:00,62.2,33.5,27.02,ESE,123,3.6,4.0,34,0.00,,---,0.00,VWS V14.01,2013-06-03 02:45:00,
2013-06-02 21:50:00,62.2,33.5,27.02,ESE,123,4.0,4.0,34,0.00,,---,0.00,VWS V14.01,2013-06-03 02:50:00,
2013-06-02 21:55:00,62.2,33.5,27.02,ESE,123,4.0,4.0,34,0.00,,---,0.00,VWS V14.01,2013-06-03 02:55:00,
2013-06-02 22:00:00,62.2,33.5,27.05,ESE,123,4.0,4.0,34,0.00,,---,0.00,VWS V14.01,2013-06-03 03:00:00,
2013-06-02 22:05:00,62.2,33.5,27.05,ESE,123,4.9,4.9,34,0.00,,---,0.00,VWS V14.01,2013-06-03 03:05:00,
2013-06-02 22:10:00,61.7,33.1,27.05,SE,125,4.9,6.3,34,0.00,,---,0.00,VWS V14.01,2013-06-03 03:10:00,
2013-06-02 22:15:00,61.7,33.1,27.05,SE,124,4.9,5.8,34,0.00,,---,0.00,VWS V14.01,2013-06-03 03:15:00,
2013-06-02 22:20:00,61.7,33.1,27.05,SE,125,5.8,5.8,34,0.00,,---,0.00,VWS V14.01,2013-06-03 03:20:00,
2013-06-02 22:25:00,61.5,32.9,27.05,ESE,122,5.8,5.8,34,0.00,,---,0.00,VWS V14.01,2013-06-03 03:25:00,
2013-06-02 22:30:00,61.5,32.9,27.05,SE,126,5.4,6.3,34,0.00,,---,0.00,VWS V14.01,2013-06-03 03:30:00,
2013-06-02 22:35:00,61.2,32.6,27.05,SE,124,5.8,5.8,34,0.00,,---,0.00,VWS V14.01,2013-06-03 03:35:00,
2013-06-02 22:40:00,61.2,32.6,27.05,SE,125,5.4,5.4,34,0.00,,---,0.00,VWS V14.01,2013-06-03 03:40:00,
2013-06-02 22:45:00,61.2,32.6,27.05,SE,124,5.4,5.4,34,0.00,,---,0.00,VWS V14.01,2013-06-03 03:45:00,
2013-06-02 22:50:00,60.3,32.5,27.05,ESE,119,4.9,5.4,35,0.00,,---,0.00,VWS V14.01,2013-06-03 03:50:00,
2013-06-02 22:55:00,60.1,32.4,27.05,ESE,123,4.9,5.4,35,0.00,,---,0.00,VWS V14.01,2013-06-03 03:55:00,
2013-06-02 23:00:00,60.1,32.4,27.05,ESE,122,5.4,5.8,35,0.00,,---,0.00,VWS V14.01,2013-06-03 04:00:00,
2013-06-02 23:01:00,60.1,32.4,27.05,ESE,122,5.4,5.4,35,0.00,,---,0.00,VWS V14.01,2013-06-03 04:01:00,
2013-06-02 23:02:00,60.1,32.4,27.05,ESE,122,5.4,5.4,35,0.00,,---,0.00,VWS V14.01,2013-06-03 04:02:00,
2013-06-02 23:07:00,60.1,32.4,27.05,ESE,120,3.6,3.6,35,0.00,,---,0.00,VWS V14.01,2013-06-03 04:07:00,
2013-06-02 23:12:00,60.1,32.4,27.05,ESE,122,5.4,5.4,35,0.00,,---,0.00,VWS V14.01,2013-06-03 04:12:00,
2013-06-02 23:17:00,59.0,31.4,27.05,ESE,122,5.4,5.4,35,0.00,,---,0.00,VWS V14.01,2013-06-03 04:17:00,
2013-06-02 23:22:00,59.0,31.4,27.05,SE,129,5.8,5.8,35,0.00,,---,0.00,VWS V14.01,2013-06-03 04:22:00,
2013-06-02 23:27:00,59.0,31.4,27.05,ESE,123,5.8,6.3,35,0.00,,---,0.00,VWS V14.01,2013-06-03 04:27:00,
2013-06-02 23:32:00,59.2,31.6,27.05,SE,127,6.7,6.7,35,0.00,,---,0.00,VWS V14.01,2013-06-03 04:32:00,
2013-06-02 23:37:00,59.2,31.6,27.05,ESE,121,7.2,7.2,35,0.00,,---,0.00,VWS V14.01,2013-06-03 04:37:00,
2013-06-02 23:42:00,59.0,31.4,27.05,SE,125,6.3,6.3,35,0.00,,---,0.00,VWS V14.01,2013-06-03 04:42:00,
2013-06-02 23:47:00,58.8,31.2,27.05,SE,126,5.4,5.8,35,0.00,,---,0.00,VWS V14.01,2013-06-03 04:47:00,
2013-06-02 23:52:00,58.5,30.9,27.05,SE,125,5.8,5.8,35,0.00,,---,0.00,VWS V14.01,2013-06-03 04:52:00,
2013-06-02 23:57:00,58.5,30.9,27.05,ESE,122,5.8,5.8,35,0.00,,---,0.00,VWS V14.01,2013-06-03 04:57:00,